Printer-friendly version

IAU Minor Planet Center

Minor Planet Center

C/2005 EL173 (LONEOS)

Orbital Elements

The following orbital elements are taken from MPC 61702:
C/2005 EL173 (LONEOS)
Epoch 2007 Mar. 1.0 TT = JDT 2454160.5
T 2007 Mar. 5.8704 TT                                   MPC
q   3.886339             (2000.0)            P               Q
z  -0.000868       Peri.  261.4933      +0.0263141      +0.9796701
 +/-0.000001       Node   344.7964      +0.9046947      -0.1079709
e   1.003372       Incl.  130.6796      -0.4252471      -0.1690820
From 285 observations 2005 Mar. 3-2007 Dec. 30, mean residual 0".6.
Elements are also available for the current standard epoch:
C/2005 EL173 (LONEOS)
Epoch 2009 June 18.0 TT = JDT 2455000.5
T 2007 Mar. 5.4642 TT                                   MPC
q   3.886967             (2000.0)            P               Q
z  -0.000580       Peri.  261.4828      +0.0259043      +0.9797188
 +/-0.000001       Node   344.8133      +0.9046491      -0.1075503
e   1.002253       Incl.  130.6694      -0.4253691      -0.1690680
An explanation of the orbital elements is available.

These orbital elements are also available in forms suitable for loading into a number of popular planetarium-type software programs.


Ephemeris

The following ephemeris is at intervals of five days. A daily ephemeris covering the same time interval is also available.

Personalized ephemerides for this (and other) objects may be generated using the Minor Planet & Comet Ephemeris Service.

Recent magnitude estimates for this comet (as reported to the ICQ) may be available.

Date    TT    R. A. (2000) Decl.     Delta      r     Elong.  Phase   m1    m2

WARNING!

This comet gets close to the sun during the period covered in the ephemeris below. Observers are warned to be wary of observing comets near the sun. NEVER point any kind of optical instrument at the sun--instant blindness will be the probable result.

2009 06 08 00 04.83 -06 56.6 7.821 7.691 79.0 7.4 20.9 2009 06 13 00 04.37 -06 53.2 7.766 7.722 83.8 7.5 20.9 2009 06 18 00 03.70 -06 51.2 7.710 7.753 88.7 7.5 20.9 2009 06 23 00 02.83 -06 50.3 7.654 7.784 93.6 7.5 20.9 2009 06 28 00 01.75 -06 50.8 7.598 7.815 98.6 7.4 20.9 2009 07 03 00 00.45 -06 52.4 7.543 7.846 103.6 7.2 20.9 2009 07 08 23 58.94 -06 55.3 7.491 7.877 108.7 7.0 20.9 2009 07 13 23 57.21 -06 59.3 7.441 7.907 113.9 6.7 20.9 2009 07 18 23 55.26 -07 04.4 7.394 7.938 119.1 6.4 20.8 2009 07 23 23 53.11 -07 10.6 7.351 7.969 124.4 6.0 20.8 2009 07 28 23 50.75 -07 17.7 7.313 8.000 129.7 5.6 20.8 2009 08 02 23 48.21 -07 25.7 7.280 8.031 135.1 5.1 20.8 2009 08 07 23 45.49 -07 34.4 7.253 8.062 140.5 4.6 20.7 2009 08 12 23 42.61 -07 43.8 7.233 8.093 146.0 4.0 20.7 2009 08 17 23 39.59 -07 53.6 7.220 8.124 151.5 3.4 20.7 2009 08 22 23 36.45 -08 03.7 7.214 8.155 157.0 2.8 20.6 2009 08 27 23 33.22 -08 14.0 7.216 8.185 162.5 2.1 20.6 2009 09 01 23 29.92 -08 24.4 7.227 8.216 167.8 1.5 20.6 2009 09 06 23 26.59 -08 34.6 7.246 8.247 172.8 0.9 20.5 2009 09 11 23 23.25 -08 44.5 7.274 8.278 175.6 0.5 20.5 2009 09 16 23 19.93 -08 53.9 7.310 8.309 172.8 0.9 20.6 2009 09 21 23 16.65 -09 02.8 7.355 8.340 167.8 1.5 20.6 2009 09 26 23 13.45 -09 11.0 7.409 8.370 162.4 2.1 20.7 2009 10 01 23 10.36 -09 18.4 7.471 8.401 156.9 2.7 20.8 2009 10 06 23 07.40 -09 24.8 7.541 8.432 151.3 3.3 20.8 2009 10 11 23 04.58 -09 30.3 7.619 8.463 145.8 3.8 20.9 2009 10 16 23 01.93 -09 34.7 7.703 8.494 140.2 4.3 21.0 2009 10 21 22 59.47 -09 38.0 7.795 8.524 134.7 4.8 21.0 2009 10 26 22 57.21 -09 40.1 7.892 8.555 129.2 5.2 21.1 2009 10 31 22 55.16 -09 41.2 7.994 8.586 123.8 5.5 21.1 2009 11 05 22 53.33 -09 41.0 8.102 8.617 118.3 5.8 21.2 2009 11 10 22 51.71 -09 39.8 8.213 8.647 113.0 6.1 21.2 2009 11 15 22 50.31 -09 37.4 8.327 8.678 107.6 6.2 21.3 2009 11 20 22 49.14 -09 33.9 8.444 8.709 102.4 6.4 21.3 2009 11 25 22 48.19 -09 29.3 8.562 8.739 97.1 6.4 21.4 2009 11 30 22 47.44 -09 23.8 8.681 8.770 91.9 6.5 21.4 2009 12 05 22 46.91 -09 17.2 8.801 8.801 86.8 6.4 21.4 2009 12 10 22 46.56 -09 09.8 8.920 8.831 81.7 6.3 21.5 2009 12 15 22 46.41 -09 01.4 9.038 8.862 76.6 6.2 21.5 2009 12 20 22 46.44 -08 52.2 9.154 8.893 71.6 6.0 21.5 2009 12 25 22 46.63 -08 42.3 9.268 8.923 66.6 5.8 21.5 2009 12 30 22 46.99 -08 31.6 9.379 8.954 61.7 5.5 21.6 2010 01 04 22 47.48 -08 20.3 9.486 8.985 56.7 5.3 21.6 2010 01 09 22 48.10 -08 08.4 9.589 9.015 51.9 4.9 21.6 2010 01 14 22 48.85 -07 55.9 9.688 9.046 47.0 4.6 21.6 2010 01 19 22 49.70 -07 42.9 9.781 9.076 42.2 4.2 21.6 2010 01 24 22 50.65 -07 29.5 9.869 9.107 37.4 3.8 21.6 2010 01 29 22 51.68 -07 15.7 9.951 9.137 32.7 3.3 21.6 2010 02 03 22 52.78 -07 01.6 10.027 9.168 27.9 2.9 21.6 2010 02 08 22 53.94 -06 47.2 10.097 9.198 23.2 2.4 21.6 2010 02 13 22 55.14 -06 32.6 10.160 9.229 18.5 1.9 21.6 2010 02 18 22 56.38 -06 17.8 10.216 9.259 13.9 1.5 21.6 2010 02 23 22 57.64 -06 02.9 10.265 9.290 9.2 1.0 21.5 2010 02 28 22 58.92 -05 48.0 10.307 9.320 4.6 0.5 21.5 2010 03 05 23 00.19 -05 33.1 10.342 9.351 0.8 0.1 21.5 2010 03 10 23 01.45 -05 18.2 10.370 9.381 4.8 0.5 21.5 2010 03 15 23 02.70 -05 03.4 10.391 9.412 9.3 1.0 21.6 2010 03 20 23 03.91 -04 48.8 10.405 9.442 13.9 1.5 21.7 2010 03 25 23 05.09 -04 34.4 10.412 9.472 18.5 1.9 21.7 2010 03 30 23 06.21 -04 20.2 10.413 9.503 23.1 2.4 21.7 2010 04 04 23 07.27 -04 06.4 10.407 9.533 27.7 2.8 21.8 2010 04 09 23 08.26 -03 52.9 10.395 9.563 32.3 3.2 21.8 2010 04 14 23 09.17 -03 39.8 10.376 9.594 36.9 3.6 21.8 2010 04 19 23 10.00 -03 27.2 10.352 9.624 41.6 4.0 21.9 2010 04 24 23 10.72 -03 15.1 10.323 9.654 46.2 4.3 21.9 2010 04 29 23 11.34 -03 03.5 10.289 9.685 50.8 4.6 21.9 2010 05 04 23 11.85 -02 52.6 10.250 9.715 55.5 4.9 21.9 2010 05 09 23 12.24 -02 42.3 10.207 9.745 60.2 5.2 21.9 2010 05 14 23 12.50 -02 32.7 10.161 9.775 64.9 5.4 21.9 2010 05 19 23 12.62 -02 23.8 10.112 9.806 69.6 5.6 21.9 2010 05 24 23 12.60 -02 15.7 10.060 9.836 74.4 5.7 21.9 2010 05 29 23 12.43 -02 08.4 10.006 9.866 79.2 5.8 21.9 2010 06 03 23 12.11 -02 02.0 9.951 9.896 84.0 5.9 21.9 2010 06 08 23 11.64 -01 56.5 9.895 9.926 88.9 5.9 21.9 2010 06 13 23 11.00 -01 51.8 9.838 9.956 93.7 5.8 21.9 2010 06 18 23 10.20 -01 48.1 9.783 9.986 98.7 5.8 21.9 2010 06 23 23 09.24 -01 45.4 9.728 10.017 103.6 5.7 21.9 2010 06 28 23 08.13 -01 43.6 9.675 10.047 108.6 5.5 21.9 2010 07 03 23 06.85 -01 42.8 9.625 10.077 113.7 5.3 21.9 2010 07 08 23 05.41 -01 42.9 9.578 10.107 118.8 5.1 21.9 2010 07 13 23 03.83 -01 44.0 9.535 10.137 123.9 4.8 21.8

Back to Observable Comets


Valid HTML 4.01!